Hoquiam, WA

11:03 PM PDT on July 29, 2016 (GMT -0700)
Bowerman

Weather History for KHQM - June, 2013

Change the Weather History Date:

Thursday, June 20, 2013

  Actual Average Record
Temperature  
Mean Temperature 58 °F 57 °F  
Max Temperature 62 °F 64 °F 82 °F (1973)
Min Temperature 54 °F 51 °F 42 °F (1960)
Degree Days  
Heating Degree Days 7 8  
Month to date heating degree days 148 175  
Since 1 June heating degree days 148 175  
Cooling Degree Days 0 0  
Month to date cooling degree days 0 0  
Year to date cooling degree days 3 1  
Since 1 June cooling degree days 0 0  
Growing Degree Days 8 (Base 50)    
Moisture  
Dew Point 51 °F    
Average Humidity 75    
Maximum Humidity 86    
Minimum Humidity 64    
Precipitation  
Precipitation T in 0.07 in 1.33 in (1984)
Month to date precipitation 0.42 1.66  
Year to date precipitation 30.00 34.58  
Sea Level Pressure  
Sea Level Pressure 30.07 in    
Wind  
Wind Speed 9 mph (West)    
Max Wind Speed 18 mph    
Max Gust Speed 23 mph    
Visibility 10 miles    
Events Rain    
T = Trace of Precipitation, MM = Missing Value Source: NWS Daily Summary

Daily Weather History Graph

Daily Weather History Graph

Search for Another Location

Airport or City:

Trip Planner

Search our weather history database for the weather conditions in past years. The results will help you decide how hot, cold, wet, or windy it might be!

Date:

Astronomy

Jun. 20, 2013 Rise Set
Actual Time 5:20 AM PDT 9:14 PM PDT
Civil Twilight 4:40 AM PDT 9:54 PM PDT
Nautical Twilight 3:46 AM PDT 10:48 PM PDT
Astronomical Twilight 2:24 AM PDT 12:10 AM PDT
Moon 6:16 PM PDT (6/20) 3:00 AM PDT (6/20)
Length of Visible Light 17h 13m
Length of Day
15h 53m
Waxing Gibbous, 89% of the Moon is Illuminated
Jun 20
Waxing Gibbous
Jun 23
Full
Jun 29
Last Quarter
Jul 8
New
Jul 15
First Quarter

Hourly Weather History & Observations

Time (PDT) Temp. Dew Point Humidity Pressure Visibility Wind Dir Wind Speed Gust Speed Precip Events Conditions
12:53 AM 57.9 °F 51.1 °F 78% 30.08 in 10.0 mi West 6.9 mph - N/A   Mostly Cloudy
1:08 AM 57.2 °F 51.8 °F 82% 30.07 in 10.0 mi West 6.9 mph - N/A   Partly Cloudy
1:53 AM 55.9 °F 51.1 °F 84% 30.07 in 10.0 mi WSW 4.6 mph - N/A   Scattered Clouds
2:13 AM 55.4 °F 51.8 °F 88% 30.06 in 10.0 mi SW 6.9 mph - N/A   Mostly Cloudy
2:48 AM 57.2 °F 51.8 °F 82% 30.04 in 10.0 mi WSW 9.2 mph - N/A   Scattered Clouds
2:53 AM 55.9 °F 51.1 °F 84% 30.05 in 10.0 mi SW 11.5 mph - N/A   Scattered Clouds
3:53 AM 57.0 °F 52.0 °F 83% 30.04 in 10.0 mi SW 11.5 mph - N/A   Overcast
4:27 AM 57.2 °F 53.6 °F 88% 30.03 in 10.0 mi WSW 10.4 mph - N/A   Overcast
4:42 AM 57.2 °F 51.8 °F 82% 30.03 in 10.0 mi West 5.8 mph - N/A   Overcast
4:53 AM 57.0 °F 52.0 °F 83% 30.04 in 10.0 mi West 4.6 mph - N/A   Overcast
5:53 AM 55.9 °F 52.0 °F 87% 30.05 in 10.0 mi WNW 4.6 mph - N/A   Overcast
6:53 AM 55.0 °F 51.1 °F 86% 30.05 in 10.0 mi Calm Calm - 0.00 in   Overcast
7:53 AM 57.0 °F 51.1 °F 81% 30.04 in 10.0 mi West 3.5 mph - N/A   Overcast
8:01 AM 57.2 °F 51.8 °F 82% 30.03 in 10.0 mi West 5.8 mph - N/A   Overcast
8:43 AM 57.2 °F 51.8 °F 82% 30.03 in 10.0 mi West 4.6 mph - N/A   Overcast
8:53 AM 57.9 °F 52.0 °F 81% 30.04 in 10.0 mi West 4.6 mph - N/A   Overcast
9:53 AM 57.9 °F 53.1 °F 84% 30.05 in 10.0 mi West 11.5 mph - 0.00 in   Overcast
10:24 AM 59.0 °F 51.8 °F 77% 30.04 in 10.0 mi West 13.8 mph 19.6 mph N/A   Overcast
10:43 AM 59.0 °F 50.0 °F 72% 30.03 in 10.0 mi West 11.5 mph - N/A   Overcast
10:53 AM 60.1 °F 50.0 °F 69% 30.05 in 10.0 mi West 10.4 mph 19.6 mph N/A   Overcast
11:53 AM 59.0 °F 48.0 °F 67% 30.06 in 10.0 mi WNW 10.4 mph 18.4 mph N/A   Overcast
12:53 PM 61.0 °F 48.9 °F 64% 30.07 in 10.0 mi West 12.7 mph 21.9 mph N/A   Overcast
1:53 PM 60.1 °F 51.1 °F 72% 30.08 in 10.0 mi WSW 12.7 mph - N/A   Overcast
2:53 PM 60.1 °F 50.0 °F 69% 30.08 in 10.0 mi WSW 15.0 mph - N/A   Overcast
3:53 PM 59.0 °F 50.0 °F 72% 30.10 in 10.0 mi West 16.1 mph 20.7 mph N/A   Overcast
4:53 PM 60.1 °F 48.9 °F 67% 30.11 in 10.0 mi WSW 13.8 mph - 0.00 in   Overcast
5:53 PM 59.0 °F 50.0 °F 72% 30.12 in 10.0 mi West 10.4 mph - 0.00 in   Overcast
6:53 PM 55.9 °F 50.0 °F 80% 30.13 in 10.0 mi West 9.2 mph - N/A   Overcast
7:53 PM 57.9 °F 48.0 °F 70% 30.13 in 10.0 mi West 9.2 mph - N/A   Overcast
8:53 PM 55.9 °F 51.1 °F 84% 30.14 in 10.0 mi WNW 6.9 mph - N/A   Overcast
9:53 PM 55.9 °F 52.0 °F 87% 30.15 in 10.0 mi WNW 3.5 mph - 0.00 in Rain Light Rain
10:53 PM 55.9 °F 52.0 °F 87% 30.15 in 10.0 mi WNW 4.6 mph - 0.00 in Rain Light Rain
11:51 PM 55.4 °F 51.8 °F 88% 30.13 in 4.0 mi West 3.5 mph - 0.00 in Rain Light Rain
11:53 PM 55.0 °F 52.0 °F 89% 30.14 in 4.0 mi West 4.6 mph - 0.00 in Rain Light Rain